BEIDOU M4

Last updated on April 2, 2019, 3:15 a.m. UTC

1 38251U 12018B   19091.21106074 -.00000093  00000-0  10000-3 0  9999
2 38251  56.5318  31.7515 0027053 236.2717  36.0275  1.86233612 47237
UTC
Height (km)
Latitude
Longitude
Inclination
Orbital Period
UTC large
Height (km)
Speed (km/s)
/
Latitude / Longitude
Inclination (degrees)
Orbital Period (minutes)
Azimuth
Elevation
Range (km)
Doppler Factor
iOS Compass Heading
iOS Angle

Next 30 passes for location: Hong Kong

Rise time Rise Azimuth (degrees) Set time Set Azimuth (degrees) Duration Max altitude (degrees)

No matching passes for this satellites